EW0681 Weather Reports


time (UTC)temp
F
wind
direction
speed
knots
gust
knots
rain 1hr
in
rain 24hr
in
rain mn
in
humidity
%
barometer
mb
20210122032205 33 15 0.0 0.0 0.00 0.00 0.00 86 1010.5
20210122031205 33 26 0.0 0.0 0.00 0.00 0.00 85 1010.5
20210122030710 34 335 0.0 0.0 0.00 0.00 0.00 84 1010.6
20210122024705 35 342 0.0 0.0 0.00 0.00 0.00 85 1010.7
20210122023205 34 333 0.0 0.0 0.00 0.00 0.00 85 1010.8
20210122022705 35 337 0.0 0.0 0.00 0.00 0.00 84 1010.8
20210122021705 35 337 0.0 0.0 0.00 0.00 0.00 84 1010.8
20210122021207 36 335 0.0 0.0 0.00 0.00 0.00 83 1010.7
20210122020207 37 335 0.0 0.0 0.00 0.00 0.00 82 1010.8
20210122015707 37 332 0.0 0.0 0.00 0.00 0.00 81 1010.8
20210122014207 38 328 0.0 0.0 0.00 0.00 0.00 81 1010.8
20210122013705 38 328 0.0 0.0 0.00 0.00 0.00 81 1010.9
20210122012707 39 17 0.0 0.0 0.00 0.00 0.00 78 1010.8
20210122012205 40 46 0.0 0.0 0.00 0.00 0.00 78 1010.8
20210122011707 40 337 0.0 0.0 0.00 0.00 0.00 78 1010.8
20210122010706 41 338 0.0 0.0 0.00 0.00 0.00 74 1011.0
20210122005705 43 346 0.0 0.0 0.00 0.00 0.00 71 1010.9
20210122005205 43 351 0.0 0.0 0.00 0.00 0.00 70 1010.9
20210122004204 45 12 0.0 0.0 0.00 0.00 0.00 64 1010.9
20210122003709 45 12 0.0 0.0 0.00 0.00 0.00 64 1010.8
20210122003205 45 12 0.0 0.0 0.00 0.00 0.00 63 1010.9
20210122002708 45 0 0.0 0.0 0.00 0.00 0.00 64 1011.0
20210122002207 45 319 0.0 0.0 0.00 0.00 0.00 64 1011.2
20210122001704 45 31 0.0 0.0 0.00 0.00 0.00 61 1011.2
20210122001205 45 31 0.0 0.0 0.00 0.00 0.00 61 1011.2
20210121235706 46 42 0.0 0.0 0.00 0.00 0.00 59 1011.4
20210121235205 46 42 0.0 0.0 0.00 0.00 0.00 57 1011.5
20210121234708 46 42 0.0 0.0 0.00 0.00 0.00 57 1011.6
20210121234211 46 42 0.0 0.0 0.00 0.00 0.00 57 1011.5
20210121233206 46 56 0.0 0.0 0.00 0.00 0.00 57 1011.7
20210121232708 47 41 0.0 0.0 0.00 0.00 0.00 56 1011.7
20210121232209 47 41 0.0 0.0 0.00 0.00 0.00 57 1011.8
20210121231707 46 81 0.0 0.0 0.00 0.00 0.00 58 1011.9
20210121231204 46 35 0.0 0.0 0.00 0.00 0.00 59 1011.9
20210121230204 46 94 0.0 0.0 0.00 0.00 0.00 59 1012.1
20210121225205 46 22 0.0 0.0 0.00 0.00 0.00 57 1012.2
20210121224708 46 65 0.0 0.0 0.00 0.00 0.00 58 1012.3
20210121224207 46 82 0.0 0.0 0.00 0.00 0.00 60 1012.2
20210121223706 45 39 0.0 0.0 0.00 0.00 0.00 64 1012.2
20210121223207 45 24 0.0 0.0 0.00 0.00 0.00 63 1012.3
20210121222706 45 40 0.0 0.0 0.00 0.00 0.00 62 1012.3
20210121222205 44 44 0.0 0.0 0.00 0.00 0.00 62
20210121220208 44 36 0.0 0.0 0.00 0.00 0.00 63 1012.8
20210121215705 44 84 0.0 0.0 0.00 0.00 0.00 62 1012.8
20210121215205 44 5 0.0 0.0 0.00 0.00 0.00 65 1012.9
20210121214704 44 5 0.0 0.0 0.00 0.00 0.00 65 1013.0
20210121214206 44 5 0.0 0.0 0.00 0.00 0.00 65 1013.1
20210121213706 43 5 0.0 0.0 0.00 0.00 0.00 67 1013.1
20210121213207 43 5 0.0 0.0 0.00 0.00 0.00 67 1013.1
20210121212704 43 5 0.0 0.0 0.00 0.00 0.00 67 1013.4
20210121212205 43 5 0.0 0.0 0.00 0.00 0.00 67 1013.5
20210121211706 43 5 0.0 0.0 0.00 0.00 0.00 69 1013.4
20210121211207 42 39 0.9 0.0 0.00 0.00 0.00 71 1013.4
20210121210707 42 355 0.9 0.0 0.00 0.00 0.00 70 1013.5
20210121210235 42 38 0.0 0.0 0.00 0.00 0.00 70 1013.9
20210121205708 41 38 0.0 0.0 0.00 0.00 0.00 71 1013.8
20210121205207 41 38 0.0 0.0 0.00 0.00 0.00 71 1013.9
20210121204704 41 38 0.0 0.0 0.00 0.00 0.00 70 1014.1
20210121203207 40 9 0.0 0.0 0.00 0.00 0.00 70 1014.3
20210121202705 40 9 0.0 0.0 0.00 0.00 0.00 70
20210121202204 39 9 0.0 0.0 0.00 0.00 0.00 70 1014.5
20210121201706 39 5 0.0 0.0 0.00 0.00 0.00 71 1014.5
20210121200704 38 5 0.0 0.0 0.00 0.00 0.00 74 1014.7
20210121200207 38 5 0.0 0.0 0.00 0.00 0.00 76 1014.8
20210121195704 38 5 0.0 0.0 0.00 0.00 0.00 76 1014.8
20210121194704 37 5 0.0 0.0 0.00 0.00 0.00 77 1015.2
20210121193705 36 5 0.0 0.0 0.00 0.00 0.00 76 1015.5
20210121193209 37 5 0.0 0.0 0.00 0.00 0.00 76 1015.6
20210121192705 37 5 0.0 0.0 0.00 0.00 0.00 77 1015.7
20210121192206 37 5 0.0 0.0 0.00 0.00 0.00 76 1015.8
20210121191208 36 5 0.0 0.0 0.00 0.00 0.00 77 1016.1
20210121190706 36 5 0.0 0.0 0.00 0.00 0.00 78 1016.1
20210121190204 36 5 0.0 0.0 0.00 0.00 0.00 79 1016.4
20210121185705 36 5 0.0 0.0 0.00 0.00 0.00 79 1016.4
20210121184723 35 5 0.0 0.0 0.00 0.00 0.00 80 1016.6
20210121184207 35 5 0.0 0.0 0.00 0.00 0.00 81 1016.7
20210121183706 35 5 0.0 0.0 0.00 0.00 0.00 82 1016.7
20210121183204 35 5 0.0 0.0 0.00 0.00 0.00 82 1016.8
20210121182205 35 5 0.0 0.0 0.00 0.00 0.00 82 1016.9
20210121181704 34 5 0.0 0.0 0.00 0.00 0.00 81 1017.0
20210121180704 35 5 0.0 0.0 0.00 0.00 0.00 81 1017.1
20210121180204 35 15 0.0 0.0 0.00 0.00 0.00 83 1017.0
20210121175705 35 20 0.0 0.0 0.00 0.00 0.00 83 1016.9
20210121175206 34 25 0.0 0.0 0.00 0.00 0.00 84 1016.9
20210121174208 34 11 0.0 0.0 0.00 0.00 0.00 86 1016.9
20210121173705 33 11 0.0 0.0 0.00 0.00 0.00 87 1017.0
20210121173212 32 11 0.0 0.0 0.00 0.00 0.00 87 1017.0
20210121172704 32 11 0.0 0.0 0.00 0.00 0.00 89 1017.1
20210121172204 31 11 0.0 0.0 0.00 0.00 0.00 90 1017.1
20210121171707 31 11 0.0 0.0 0.00 0.00 0.00 91 1017.1
20210121170708 30 11 0.0 0.0 0.00 0.00 0.00 91 1017.5
20210121170207 30 11 0.0 0.0 0.00 0.00 0.00 91 1017.3
20210121165705 30 11 0.0 0.0 0.00 0.00 0.00 91 1017.2
20210121165204 30 11 0.0 0.0 0.00 0.00 0.00 91 1017.2
20210121164205 30 11 0.0 0.0 0.00 0.00 0.00 91 1017.2
20210121163706 29 11 0.0 0.0 0.00 0.00 0.00 91 1017.2
20210121162709 28 348 0.0 0.0 0.00 0.00 0.00 95 1017.3
20210121162204 28 348 0.0 0.0 0.00 0.00 0.00 94 1017.5
20210121161704 28 348 0.0 0.0 0.00 0.00 0.00 94 1017.5
20210121161205 28 348 0.0 0.0 0.00 0.00 0.00 94 1017.3
20210121160705 28 348 0.0 0.0 0.00 0.00 0.00 94 1017.2
20210121160204 28 348 0.0 0.0 0.00 0.00 0.00 94 1017.2
20210121155205 27 348 0.0 0.0 0.00 0.00 0.00 95 1017.2
20210121154712 27 348 0.0 0.0 0.00 0.00 0.00 94 1017.2
20210121153712 27 348 0.0 0.0 0.00 0.00 0.00 94 1017.2
20210121153205 27 348 0.0 0.0 0.00 0.00 0.00 94 1017.3
20210121152204 27 348 0.0 0.0 0.00 0.00 0.00 94 1017.2
20210121151705 27 348 0.0 0.0 0.00 0.00 0.00 95 1017.5
20210121151207 27 348 0.0 0.0 0.00 0.00 0.00 95 1017.5
20210121150709 27 348 0.0 0.0 0.00 0.00 0.00 95 1017.3
20210121150208 28 11 0.0 0.0 0.00 0.00 0.00 90 1017.5
20210121145706 28 11 0.0 0.0 0.00 0.00 0.00 90 1017.5
20210121145205 28 11 0.0 0.0 0.00 0.00 0.00 90 1017.5
20210121144204 28 11 0.0 0.0 0.00 0.00 0.00 90 1017.5
20210121143211 28 11 0.0 0.0 0.00 0.00 0.00 90 1017.6
20210121142705 28 11 0.0 0.0 0.00 0.00 0.00 89 1017.7
20210121142206 28 11 0.0 0.0 0.00 0.00 0.00 89 1017.7
20210121141706 28 11 0.0 0.0 0.00 0.00 0.00 90 1017.8
20210121141205 28 11 0.0 0.0 0.00 0.00 0.00 90 1017.8
20210121140706 28 11 0.0 0.0 0.00 0.00 0.00 90 1017.7
20210121140205 28 11 0.0 0.0 0.00 0.00 0.00 90 1017.7
20210121135706 28 11 0.0 0.0 0.00 0.00 0.00 90 1017.8
20210121134704 28 11 0.0 0.0 0.00 0.00 0.00 89 1017.7
20210121133704 28 11 0.0 0.0 0.00 0.00 0.00 89 1017.8
20210121132705 28 11 0.0 0.0 0.00 0.00 0.00 89 1017.8
20210121132206 28 11 0.0 0.0 0.00 0.00 0.00 89 1017.8
20210121131204 28 11 0.0 0.0 0.00 0.00 0.00 89 1017.8
20210121130705 28 11 0.0 0.0 0.00 0.00 0.00 89 1017.8
20210121125707 28 11 0.0 0.0 0.00 0.00 0.00 89 1017.8
20210121125206 28 11 0.0 0.0 0.00 0.00 0.00 89 1017.9
20210121124705 29 11 0.0 0.0 0.00 0.00 0.00 88 1017.9
20210121124207 29 11 0.0 0.0 0.00 0.00 0.00 88 1018.0
20210121123704 29 11 0.0 0.0 0.00 0.00 0.00 88 1018.0
20210121123205 29 11 0.0 0.0 0.00 0.00 0.00 88 1018.0
20210121122715 29 11 0.0 0.0 0.00 0.00 0.00 88 1018.1
20210121122210 29 11 0.0 0.0 0.00 0.00 0.00 88 1018.1
20210121121224 29 11 0.0 0.0 0.00 0.00 0.00 88 1018.0
20210121120750 29 11 0.0 0.0 0.00 0.00 0.00 88 1018.1
20210121115705 29 11 0.0 0.0 0.00 0.00 0.00 87 1018.1
20210121114705 29 11 0.0 0.0 0.00 0.00 0.00 87 1018.3
20210121113707 30 11 0.0 0.0 0.00 0.00 0.00 87 1018.4
20210121113206 30 11 0.0 0.0 0.00 0.00 0.00 87 1018.4
20210121112706 30 11 0.0 0.0 0.00 0.00 0.00 87 1018.4
20210121112209 30 11 0.0 0.0 0.00 0.00 0.00 87 1018.4
20210121111708 30 11 0.0 0.0 0.00 0.00 0.00 87 1018.4
20210121111204 30 11 0.0 0.0 0.00 0.00 0.00 87 1018.3
20210121110705 30 11 0.0 0.0 0.00 0.00 0.00 87 1018.3
20210121110207 30 11 0.0 0.0 0.00 0.00 0.00 87 1018.4
20210121105208 31 11 0.0 0.0 0.00 0.00 0.00 87 1018.7
20210121104705 31 11 0.0 0.0 0.00 0.00 0.00 87 1018.7
20210121104213 31 11 0.0 0.0 0.00 0.00 0.00 87 1018.7
20210121103705 31 11 0.0 0.0 0.00 0.00 0.00 87 1018.8
20210121103206 31 11 0.0 0.0 0.00 0.00 0.00 87 1018.9
20210121102704 31 11 0.0 0.0 0.00 0.00 0.00 87 1018.9
20210121102206 31 11 0.0 0.0 0.00 0.00 0.00 87 1018.9
20210121101204 31 11 0.0 0.0 0.00 0.00 0.00 87 1018.9
20210121100706 31 11 0.0 0.0 0.00 0.00 0.00 88 1018.8
20210121100207 31 11 0.0 0.0 0.00 0.00 0.00 88 1018.9
20210121095707 31 11 0.0 0.0 0.00 0.00 0.00 88 1018.9
20210121095205 31 11 0.0 0.0 0.00 0.00 0.00 88 1019.0
20210121094715 31 11 0.0 0.0 0.00 0.00 0.00 88 1019.0
20210121094206 31 11 0.0 0.0 0.00 0.00 0.00 88 1018.9
20210121093204 30 11 0.0 0.0 0.00 0.00 0.00 88 1018.9
20210121092708 30 11 0.0 0.0 0.00 0.00 0.00 88 1019.0
20210121092205 30 11 0.0 0.0 0.00 0.00 0.00 88 1019.1
20210121091710 30 11 0.0 0.0 0.00 0.00 0.00 88 1019.0
20210121091209 30 11 0.0 0.0 0.00 0.00 0.00 88 1019.2
20210121090207 30 11 0.0 0.0 0.00 0.00 0.00 88 1019.3
20210121085716 30 11 0.0 0.0 0.00 0.00 0.00 88 1019.2
20210121085204 30 11 0.0 0.0 0.00 0.00 0.00 88 1019.1
20210121084707 30 11 0.0 0.0 0.00 0.00 0.00 88 1019.3
20210121084205 30 11 0.0 0.0 0.00 0.00 0.00 88 1019.3
20210121083706 30 11 0.0 0.0 0.00 0.00 0.00 88 1019.3
20210121083210 30 11 0.0 0.0 0.00 0.00 0.00 87 1019.3
20210121082206 30 248 0.0 0.0 0.00 0.00 0.00 87 1019.4
20210121081704 30 248 0.0 0.0 0.00 0.00 0.00 87 1019.4
20210121081206 30 248 0.0 0.0 0.00 0.00 0.00 86 1019.4
20210121080704 30 248 0.0 0.0 0.00 0.00 0.00 86 1019.5
20210121080205 30 248 0.0 0.0 0.00 0.00 0.00 86 1019.5
20210121075705 30 248 0.0 0.0 0.00 0.00 0.00 86 1019.6
20210121075204 30 248 0.0 0.0 0.00 0.00 0.00 86 1019.7
20210121074704 30 248 0.0 0.0 0.00 0.00 0.00 86 1019.9
20210121073704 30 248 0.0 0.0 0.00 0.00 0.00 86 1020.1
20210121073207 30 248 0.0 0.0 0.00 0.00 0.00 85 1020.0
20210121072705 30 248 0.0 0.0 0.00 0.00 0.00 85 1020.1
20210121072205 30 248 0.0 0.0 0.00 0.00 0.00 85 1019.9
20210121071205 30 248 0.0 0.0 0.00 0.00 0.00 85 1019.7
20210121070707 30 248 0.0 0.0 0.00 0.00 0.00 85 1019.9